This is the latest recevied weather packets stored in our database for station/object W4NDF-13. If no packets are shown the sender has not sent any weather packets the latest 10 day(s).
| Time | Temp. | Humidity | Pressure | Rain* | Wind** | Luminosity | Snow |
|---|---|---|---|---|---|---|---|
| 1777997463 | 25.56° C | 68% | 1014.3 hPa | 0 mm | - | 706 W/m² | - |
| 1777997161 | 25.56° C | 68% | 1014.3 hPa | 0 mm | - | 665 W/m² | - |
| 1777996858 | 26.11° C | 66% | 1014.4 hPa | 0 mm | - | 701 W/m² | - |
| 1777996554 | 26.11° C | 68% | 1014.3 hPa | 0 mm | - | 717 W/m² | - |
| 1777996251 | 26.11° C | 66% | 1014.4 hPa | 0 mm | - | 702 W/m² | - |
| 1777995947 | 25.56° C | 67% | 1014.6 hPa | 0 mm | - | 682 W/m² | - |
| 1777995643 | 26.11° C | 66% | 1014.6 hPa | 0 mm | - | 677 W/m² | - |
| 1777995341 | 25.56° C | 67% | 1014.5 hPa | 0 mm | - | 621 W/m² | - |
| 1777995038 | 25.56° C | 68% | 1014.6 hPa | 0 mm | - | 645 W/m² | - |
| 1777994735 | 25.56° C | 69% | 1014.5 hPa | 0 mm | - | 643 W/m² | - |
| 1777994431 | 25° C | 69% | 1014.6 hPa | 0 mm | - | 639 W/m² | - |
| 1777994131 | 25° C | 70% | 1014.5 hPa | 0 mm | - | 617 W/m² | - |
| 1777993829 | 25.56° C | 70% | 1014.3 hPa | 0 mm | - | 620 W/m² | - |
| 1777993525 | 25.56° C | 69% | 1014.4 hPa | 0 mm | - | 588 W/m² | - |
| 1777993221 | 25° C | 70% | 1014.3 hPa | 0 mm | - | 575 W/m² | - |
| 1777992917 | 25.56° C | 69% | 1014.6 hPa | 0 mm | - | 235 W/m² | - |
| 1777992616 | 25.56° C | 69% | 1014.5 hPa | 0 mm | - | 481 W/m² | - |
| 1777992313 | 25° C | 69% | 1014.4 hPa | 0 mm | - | 506 W/m² | - |
| 1777992010 | 25° C | 70% | 1014.3 hPa | 0 mm | - | 465 W/m² | - |
| 1777991708 | 25° C | 70% | 1014.7 hPa | 0 mm | - | 457 W/m² | - |
| 1777991405 | 24.44° C | 71% | 1014.5 hPa | 0 mm | - | 468 W/m² | - |
| 1777991102 | 24.44° C | 72% | 1014.4 hPa | 0 mm | - | 451 W/m² | - |
| 1777990799 | 24.44° C | 72% | 1014.4 hPa | 0 mm | - | 408 W/m² | - |
| 1777990496 | 23.89° C | 74% | 1014.5 hPa | 0 mm | - | 382 W/m² | - |
| 1777989890 | 23.89° C | 75% | 1014.7 hPa | 0 mm | - | 319 W/m² | - |
* Rain latest hour (hover to see other rain measurements)
** Current wind speed in m/s (hover to see current wind gust speed)